FW8901 Weather Reports


Display with metric or nautical units.
time (UTC)temp
F
wind
direction
speed
MPH
gust
MPH
rain 1hr
in
rain 24hr
in
rain mn
in
humidity
%
barometer
mb
20260831014047 76 0.0 0.0 0.00 0.00 0.00 82 1019.8
20260831013547 76 0.0 0.0 0.00 0.00 0.00 82 1019.7
20260831013110 76 0.0 0.0 0.00 0.00 0.00 82 1019.8
20260831012545 76 0.0 0.0 0.00 0.00 0.00 82 1019.8
20260831012044 76 0.0 0.0 0.00 0.00 0.00 81 1019.8
20260831011602 76 0.0 0.0 0.00 0.00 0.00 81 1020.0
20260831011047 77 0.0 0.0 0.00 0.00 0.00 80 1019.9
20260831010548 77 0.0 0.0 0.00 0.00 0.00 80 1019.9
20260831010120 77 0.0 0.0 0.00 0.00 0.00 79 1019.9
20260831005600 77 0.0 0.0 0.00 0.00 0.00 79 1019.7
20260831005049 77 0.0 0.0 0.00 0.00 0.00 79 1019.6
20260831004614 77 0.0 0.0 0.00 0.00 0.00 78 1019.5
20260831004049 78 0.0 0.0 0.00 0.00 0.00 78 1019.6
20260831003548 78 0.0 0.0 0.00 0.00 0.00 78 1019.6
20260831003104 78 0.0 0.0 0.00 0.00 0.00 77 1019.6
20260831002550 78 0.0 0.0 0.00 0.00 0.00 77 1019.6
20260831002048 78 0.0 0.0 0.00 0.00 0.00 77 1019.5
20260831001601 78 0.0 0.0 0.00 0.00 0.00 76 1019.6
20260831001049 79 0.0 0.0 0.00 0.00 0.00 76 1019.5
20260831000547 79 0.0 0.0 0.00 0.00 0.00 76 1019.5
20260831000109 79 0.0 0.0 0.00 0.00 0.00 76 1019.4
20260830235549 79 0.0 0.0 0.00 0.00 0.00 75 1019.3
20260830235048 79 0.0 0.0 0.00 0.00 0.00 74 1019.4
20260830234635 79 0.0 0.0 0.00 0.00 0.00 74 1019.4
20260830234047 79 0.0 0.0 0.00 0.00 0.00 74 1019.5
20260830233545 80 0.0 0.0 0.00 0.00 0.00 73 1019.6
20260830233100 80 0.0 0.0 0.00 0.00 0.00 72 1019.7
20260830232545 80 0.0 0.0 0.00 0.00 0.00 72 1019.6
20260830232046 80 0.0 0.0 0.00 0.00 0.00 71 1019.4
20260830231607 81 0.0 0.0 0.00 0.00 0.00 71 1019.5
20260830231046 81 0.0 0.0 0.00 0.00 0.00 70 1019.4
20260830230548 81 0.0 0.0 0.00 0.00 0.00 70 1019.3
20260830230106 82 0.0 0.0 0.00 0.00 0.00 71 1019.4
20260830225545 82 0.0 0.0 0.00 0.00 0.00 71 1019.3
20260830225045 82 0.0 0.0 0.00 0.00 0.00 71 1019.3
20260830224604 82 0.0 0.0 0.00 0.00 0.00 72 1019.4
20260830224047 83 0.0 0.0 0.00 0.00 0.00 72 1019.3
20260830223548 83 0.0 0.0 0.00 0.00 0.00 71 1019.4
20260830223100 83 0.0 0.0 0.00 0.00 0.00 73 1019.1
20260830222546 83 0.0 0.0 0.00 0.00 0.00 72 1019.1
20260830222056 84 0.0 0.0 0.00 0.00 0.00 72 1018.9
20260830221608 84 0.0 0.0 0.00 0.00 0.00 71 1019.0
20260830221048 84 0.0 0.0 0.00 0.00 0.00 71 1019.0
20260830220545 84 0.0 0.0 0.00 0.00 0.00 71 1018.9
20260830220106 84 0.0 0.0 0.00 0.00 0.00 70 1018.8
20260830215544 85 0.0 0.0 0.00 0.00 0.00 70 1018.9
20260830215058 85 0.0 0.0 0.00 0.00 0.00 70 1018.9
20260830214602 85 0.0 0.0 0.00 0.00 0.00 69 1019.1
20260830214046 85 0.0 0.0 0.00 0.00 0.00 68 1019.1
20260830213545 85 0.0 0.0 0.00 0.00 0.00 68 1019.1
20260830213113 85 0.0 0.0 0.00 0.00 0.00 68 1019.2
20260830212547 85 0.0 0.0 0.00 0.00 0.00 68 1019.1
20260830212100 85 0.0 0.0 0.00 0.00 0.00 67 1019.1
20260830211606 85 0.0 0.0 0.00 0.00 0.00 67 1019.0
20260830211046 85 0.0 0.0 0.00 0.00 0.00 69 1019.1
20260830210551 84 0.0 0.0 0.00 0.00 0.00 69 1018.9
20260830210108 85 0.0 0.0 0.00 0.00 0.00 68 1018.9
20260830205545 86 0.0 0.0 0.00 0.00 0.00 67 1018.7
20260830205049 86 0.0 0.0 0.00 0.00 0.00 64 1018.7
20260830204607 86 0.0 0.0 0.00 0.00 0.00 63 1018.7
20260830204045 87 0.0 0.0 0.00 0.00 0.00 65 1018.7
20260830203545 86 0.0 0.0 0.00 0.00 0.00 65 1018.7
20260830203103 86 0.0 0.0 0.00 0.00 0.00 63 1018.7
20260830202550 87 0.0 0.0 0.00 0.00 0.00 62 1018.9
20260830202047 88 0.0 0.0 0.00 0.00 0.00 64 1019.1
20260830201606 86 0.0 0.0 0.00 0.00 0.00 63 1019.1
20260830201047 87 0.0 0.0 0.00 0.00 0.00 61 1019.1
20260830200548 88 0.0 0.0 0.00 0.00 0.00 62 1019.2
20260830200058 89 0.0 0.0 0.00 0.00 0.00 59 1019.3
20260830195547 88 0.0 0.0 0.00 0.00 0.00 61 1019.2
20260830195052 88 0.0 0.0 0.00 0.00 0.00 61 1019.4
20260830194607 89 0.0 0.0 0.00 0.00 0.00 59 1019.4
20260830194047 88 0.0 0.0 0.00 0.00 0.00 61 1019.4
20260830193547 87 0.0 0.0 0.00 0.00 0.00 60 1019.4
20260830193104 88 0.0 0.0 0.00 0.00 0.00 59 1019.4
20260830192546 87 0.0 0.0 0.00 0.00 0.00 61 1019.4
20260830192046 88 0.0 0.0 0.00 0.00 0.00 61 1019.5
20260830191559 87 0.0 0.0 0.00 0.00 0.00 63 1019.6
20260830191048 88 0.0 0.0 0.00 0.00 0.00 60 1019.6
20260830190547 89 0.0 0.0 0.00 0.00 0.00 60 1019.8
20260830190059 88 0.0 0.0 0.00 0.00 0.00 63 1019.9
20260830185549 88 0.0 0.0 0.00 0.00 0.00 61 1020.1
20260830185050 88 0.0 0.0 0.00 0.00 0.00 61 1020.3
20260830184601 87 0.0 0.0 0.00 0.00 0.00 62 1020.4
20260830184046 88 0.0 0.0 0.00 0.00 0.00 61 1020.6
20260830183546 88 0.0 0.0 0.00 0.00 0.00 62 1020.6
20260830183103 89 0.0 0.0 0.00 0.00 0.00 61 1020.6
20260830182548 88 0.0 0.0 0.00 0.00 0.00 62 1020.7
20260830182049 89 0.0 0.0 0.00 0.00 0.00 62 1020.8
20260830181559 86 0.0 0.0 0.00 0.00 0.00 64 1020.8
20260830181047 87 0.0 0.0 0.00 0.00 0.00 63 1020.9
20260830180548 86 0.0 0.0 0.00 0.00 0.00 64 1021.0
20260830180111 86 0.0 0.0 0.00 0.00 0.00 66 1021.0
20260830175547 86 0.0 0.0 0.00 0.00 0.00 66 1021.2
20260830175051 86 0.0 0.0 0.00 0.00 0.00 68 1021.4
20260830174612 86 0.0 0.0 0.00 0.00 0.00 64 1021.4
20260830174047 84 0.0 0.0 0.00 0.00 0.00 68 1021.4
20260830173548 85 0.0 0.0 0.00 0.00 0.00 66 1021.4
20260830173107 84 0.0 0.0 0.00 0.00 0.00 67 1021.6
20260830172548 84 0.0 0.0 0.00 0.00 0.00 72 1021.6
20260830172049 83 0.0 0.0 0.00 0.00 0.00 69 1021.7
20260830171603 83 0.0 0.0 0.00 0.00 0.00 68 1021.8
20260830171048 83 0.0 0.0 0.00 0.00 0.00 70 1021.8
20260830170548 84 0.0 0.0 0.00 0.00 0.00 68 1022.0
20260830170111 83 0.0 0.0 0.00 0.00 0.00 72 1022.1
20260830165551 82 0.0 0.0 0.00 0.00 0.00 71 1022.1
20260830165044 82 0.0 0.0 0.00 0.00 0.00 70 1022.2
20260830164605 82 0.0 0.0 0.00 0.00 0.00 70 1022.3
20260830164049 83 0.0 0.0 0.00 0.00 0.00 68 1022.3
20260830163549 82 0.0 0.0 0.00 0.00 0.00 71 1022.3
20260830163103 81 0.0 0.0 0.00 0.00 0.00 71 1022.5
20260830162548 81 0.0 0.0 0.00 0.00 0.00 74 1022.5
20260830162048 80 0.0 0.0 0.00 0.00 0.00 75 1022.5
20260830161622 79 0.0 0.0 0.00 0.00 0.00 75 1022.6
20260830161045 81 0.0 0.0 0.00 0.00 0.00 74 1022.5
20260830160547 81 0.0 0.0 0.00 0.00 0.00 75 1022.6
20260830160108 80 0.0 0.0 0.00 0.00 0.00 75 1022.7
20260830155551 80 0.0 0.0 0.00 0.00 0.00 75 1022.6
20260830155049 80 0.0 0.0 0.00 0.00 0.00 76 1022.7
20260830154602 79 0.0 0.0 0.00 0.00 0.00 78 1022.7
20260830154047 80 0.0 0.0 0.00 0.00 0.00 76 1022.7
20260830153548 81 0.0 0.0 0.00 0.00 0.00 73 1022.7
20260830153108 81 0.0 0.0 0.00 0.00 0.00 75 1022.6
20260830152547 80 0.0 0.0 0.00 0.00 0.00 74 1022.7
20260830152051 80 0.0 0.0 0.00 0.00 0.00 78 1022.7
20260830151559 79 0.0 0.0 0.00 0.00 0.00 81 1022.7
20260830151049 78 0.0 0.0 0.00 0.00 0.00 82 1022.7
20260830150549 78 0.0 0.0 0.00 0.00 0.00 80 1022.7
20260830150118 78 0.0 0.0 0.00 0.00 0.00 79 1022.6
20260830145548 78 0.0 0.0 0.00 0.00 0.00 81 1022.6
20260830145048 77 0.0 0.0 0.00 0.00 0.00 84 1022.6
20260830144606 76 0.0 0.0 0.00 0.00 0.00 85 1022.7
20260830144047 76 0.0 0.0 0.00 0.00 0.00 84 1022.7
20260830143549 76 0.0 0.0 0.00 0.00 0.00 86 1022.8
20260830143102 76 0.0 0.0 0.00 0.00 0.00 86 1022.8
20260830142549 76 0.0 0.0 0.00 0.00 0.00 86 1022.9
20260830142047 76 0.0 0.0 0.00 0.00 0.00 87 1022.8
20260830141559 75 0.0 0.0 0.00 0.00 0.00 87 1022.8
20260830141046 76 0.0 0.0 0.00 0.00 0.00 87 1022.7
20260830140546 75 0.0 0.0 0.00 0.00 0.00 88 1022.8
20260830140108 75 0.0 0.0 0.00 0.00 0.00 88 1022.8
20260830135546 74 0.0 0.0 0.00 0.00 0.00 89 1022.7
20260830135046 74 0.0 0.0 0.00 0.00 0.00 90 1022.8
20260830134603 74 0.0 0.0 0.00 0.00 0.00 90 1022.9
20260830134048 74 0.0 0.0 0.00 0.00 0.00 91 1022.9
20260830133545 73 0.0 0.0 0.00 0.00 0.00 91 1023.0
20260830133107 73 0.0 0.0 0.00 0.00 0.00 92 1023.0
20260830132547 73 0.0 0.0 0.00 0.00 0.00 92 1023.0
20260830132049 73 0.0 0.0 0.00 0.00 0.00 93 1022.9
20260830131607 72 0.0 0.0 0.00 0.00 0.00 93 1022.9
20260830131047 72 0.0 0.0 0.00 0.00 0.00 94 1023.0
20260830130546 72 0.0 0.0 0.00 0.00 0.00 94 1023.0
20260830130111 72 0.0 0.0 0.00 0.00 0.00 94 1023.1
20260830125546 72 0.0 0.0 0.00 0.00 0.00 94 1023.2
20260830125049 72 0.0 0.0 0.00 0.00 0.00 94 1023.1
20260830124610 72 0.0 0.0 0.00 0.00 0.00 94 1023.1
20260830124048 72 0.0 0.0 0.00 0.00 0.00 94 1023.1
20260830123547 72 0.0 0.0 0.00 0.00 0.00 94 1023.0
20260830123108 71 0.0 0.0 0.00 0.00 0.00 94 1023.0
20260830122550 71 0.0 0.0 0.00 0.00 0.00 94 1023.0
20260830122047 71 0.0 0.0 0.00 0.00 0.00 94 1023.1
20260830121601 71 0.0 0.0 0.00 0.00 0.00 94 1023.1
20260830121046 71 0.0 0.0 0.00 0.00 0.00 94 1023.3
20260830120546 71 0.0 0.0 0.00 0.00 0.00 94 1023.3
20260830120058 71 0.0 0.0 0.00 0.00 0.00 94 1023.2
20260830115546 71 0.0 0.0 0.00 0.00 0.00 94 1023.2
20260830115046 71 0.0 0.0 0.00 0.00 0.00 94 1023.1
20260830114617 71 0.0 0.0 0.00 0.00 0.00 94 1023.1
20260830114045 71 0.0 0.0 0.00 0.00 0.00 94 1023.0
20260830113546 71 0.0 0.0 0.00 0.00 0.00 94 1023.0
20260830113101 71 0.0 0.0 0.00 0.00 0.00 94 1023.0
20260830112546 71 0.0 0.0 0.00 0.00 0.00 94 1023.0
20260830112047 71 0.0 0.0 0.00 0.00 0.00 94 1023.0
20260830111601 71 0.0 0.0 0.00 0.00 0.00 94 1023.1
20260830111046 71 0.0 0.0 0.00 0.00 0.00 94 1023.1
20260830110545 71 0.0 0.0 0.00 0.00 0.00 94 1023.0
20260830110107 71 0.0 0.0 0.00 0.00 0.00 93 1023.1
20260830105545 71 0.0 0.0 0.00 0.00 0.00 93 1023.1
20260830105046 71 0.0 0.0 0.00 0.00 0.00 93 1023.1
20260830104611 71 0.0 0.0 0.00 0.00 0.00 93 1023.1
20260830104051 71 0.0 0.0 0.00 0.00 0.00 93 1023.1
20260830103546 71 0.0 0.0 0.00 0.00 0.00 93 1023.0
20260830103102 70 0.0 0.0 0.00 0.00 0.00 93 1023.0
20260830102546 71 0.0 0.0 0.00 0.00 0.00 93 1023.0
20260830102049 71 0.0 0.0 0.00 0.00 0.00 93 1023.0
20260830101559 71 0.0 0.0 0.00 0.00 0.00 93 1023.0
20260830101045 71 0.0 0.0 0.00 0.00 0.00 93 1023.0
20260830100549 71 0.0 0.0 0.00 0.00 0.00 93 1023.0
20260830100058 71 0.0 0.0 0.00 0.00 0.00 93 1023.0
20260830095548 71 0.0 0.0 0.00 0.00 0.00 93 1023.0
20260830095048 71 0.0 0.0 0.00 0.00 0.00 93 1023.0
20260830094604 71 0.0 0.0 0.00 0.00 0.00 93 1022.8
20260830094046 71 0.0 0.0 0.00 0.00 0.00 93 1022.8
20260830093549 71 0.0 0.0 0.00 0.00 0.00 93 1022.7
20260830093101 70 0.0 0.0 0.00 0.00 0.00 92 1022.7
20260830092546 70 0.0 0.0 0.00 0.00 0.00 92 1022.7
20260830092048 70 0.0 0.0 0.00 0.00 0.00 92 1022.7
20260830091558 70 0.0 0.0 0.00 0.00 0.00 92 1022.8
20260830091046 70 0.0 0.0 0.00 0.00 0.00 92 1022.7
20260830090547 70 0.0 0.0 0.00 0.00 0.00 92 1022.8
20260830090128 70 0.0 0.0 0.00 0.00 0.00 92 1022.7
20260830085545 70 0.0 0.0 0.00 0.00 0.00 92 1022.7
20260830085049 70 0.0 0.0 0.00 0.00 0.00 91 1022.7
20260830084559 70 0.0 0.0 0.00 0.00 0.00 91 1022.7
20260830084048 70 0.0 0.0 0.00 0.00 0.00 91 1022.7
20260830083549 70 0.0 0.0 0.00 0.00 0.00 91 1022.6
20260830083103 70 0.0 0.0 0.00 0.00 0.00 91 1022.6
20260830082544 70 0.0 0.0 0.00 0.00 0.00 91 1022.5
20260830082046 70 0.0 0.0 0.00 0.00 0.00 91 1022.6
20260830081601 70 0.0 0.0 0.00 0.00 0.00 91 1022.7
20260830081047 70 0.0 0.0 0.00 0.00 0.00 91 1022.7
20260830080546 70 0.0 0.0 0.00 0.00 0.00 90 1022.5
20260830075550 70 0.0 0.0 0.00 0.00 0.00 90 1022.8
20260830075049 70 0.0 0.0 0.00 0.00 0.00 90 1022.7
20260830074633 70 0.0 0.0 0.00 0.00 0.00 90 1022.7
20260830074048 70 0.0 0.0 0.00 0.00 0.00 90 1022.7
20260830073551 70 0.0 0.0 0.00 0.00 0.00 89 1022.9
20260830073108 70 0.0 0.0 0.00 0.00 0.00 89 1022.9
20260830072550 70 0.0 0.0 0.00 0.00 0.00 89 1023.0
20260830072050 70 0.0 0.0 0.00 0.00 0.00 89 1023.0
20260830071605 70 0.0 0.0 0.00 0.00 0.00 89 1022.9
20260830071049 70 0.0 0.0 0.00 0.00 0.00 89 1023.0
20260830070545 70 0.0 0.0 0.00 0.00 0.00 89 1023.1
20260830070106 70 0.0 0.0 0.00 0.00 0.00 89 1023.0
20260830065548 70 0.0 0.0 0.00 0.00 0.00 89 1022.9
20260830065046 70 0.0 0.0 0.00 0.00 0.00 89 1023.0
20260830064600 70 0.0 0.0 0.00 0.00 0.00 89 1023.1
20260830064046 70 0.0 0.0 0.00 0.00 0.00 88 1023.2
20260830063546 70 0.0 0.0 0.00 0.00 0.00 88 1023.1
20260830063105 70 0.0 0.0 0.00 0.00 0.00 88 1023.3
20260830062550 70 0.0 0.0 0.00 0.00 0.00 88 1023.4
20260830062050 70 0.0 0.0 0.00 0.00 0.00 88 1023.3
20260830061607 70 0.0 0.0 0.00 0.00 0.00 88 1023.4
20260830061046 70 0.0 0.0 0.00 0.00 0.00 88 1023.3
20260830060545 70 0.0 0.0 0.00 0.00 0.00 88 1023.4
20260830060106 69 0.0 0.0 0.00 0.00 0.00 88 1023.4
20260830055557 69 0.0 0.0 0.00 0.00 0.00 87 1023.5
20260830055047 69 0.0 0.0 0.00 0.00 0.00 87 1023.5
20260830054617 69 0.0 0.0 0.00 0.00 0.00 87 1023.6
20260830054046 69 0.0 0.0 0.00 0.00 0.00 87 1023.5
20260830053546 69 0.0 0.0 0.00 0.00 0.00 87 1023.6
20260830053106 69 0.0 0.0 0.00 0.00 0.00 87 1023.6
20260830052546 69 0.0 0.0 0.00 0.00 0.00 87 1023.5
20260830052049 69 0.0 0.0 0.00 0.00 0.00 86 1023.5
20260830051608 69 0.0 0.0 0.00 0.00 0.00 86 1023.5
20260830051047 69 0.0 0.0 0.00 0.00 0.00 86 1023.4
20260830050546 69 0.0 0.0 0.00 0.00 0.00 86 1023.5
20260830050112 69 0.0 0.0 0.00 0.00 0.00 86 1023.4
20260830045549 69 0.0 0.0 0.00 0.00 0.00 86 1023.5
20260830045048 69 0.0 0.0 0.00 0.00 0.00 86 1023.5
20260830044616 69 0.0 0.0 0.00 0.00 0.00 86 1023.6
20260830044050 69 0.0 0.0 0.00 0.00 0.00 86 1023.6
20260830043548 69 0.0 0.0 0.00 0.00 0.00 86 1023.7
20260830043111 69 0.0 0.0 0.00 0.00 0.00 86 1023.5
20260830042547 69 0.0 0.0 0.00 0.00 0.00 86 1023.5
20260830042056 69 0.0 0.0 0.00 0.00 0.00 86 1023.5
20260830041653 69 0.0 0.0 0.00 0.00 0.00 86 1023.4
20260830041047 69 0.0 0.0 0.00 0.00 0.00 85 1023.4
20260830040546 69 0.0 0.0 0.00 0.00 0.00 85 1023.4
20260830040101 69 0.0 0.0 0.00 0.00 0.00 85 1023.5
20260830035551 70 0.0 0.0 0.00 0.00 0.00 85 1023.5
20260830035048 70 0.0 0.0 0.00 0.00 0.00 85 1023.2
20260830034607 70 0.0 0.0 0.00 0.00 0.00 85 1023.3
20260830034047 70 0.0 0.0 0.00 0.00 0.00 85 1023.4
20260830033548 70 0.0 0.0 0.00 0.00 0.00 85 1023.4
20260830033100 70 0.0 0.0 0.00 0.00 0.00 85 1023.5
20260830032548 70 0.0 0.0 0.00 0.00 0.00 84 1023.5
20260830032048 70 0.0 0.0 0.00 0.00 0.00 84 1023.4
20260830031559 70 0.0 0.0 0.00 0.00 0.00 84 1023.5
20260830031048 70 0.0 0.0 0.00 0.00 0.00 84 1023.6
20260830030548 70 0.0 0.0 0.00 0.00 0.00 84 1023.5
20260830030142 70 0.0 0.0 0.00 0.00 0.00 83 1023.4
20260830025551 70 0.0 0.0 0.00 0.00 0.00 83 1023.5
20260830025050 70 0.0 0.0 0.00 0.00 0.00 83 1023.4
20260830024602 70 0.0 0.0 0.00 0.00 0.00 83 1023.4
20260830024048 70 0.0 0.0 0.00 0.00 0.00 82 1023.4
20260830023550 70 0.0 0.0 0.00 0.00 0.00 82 1023.5
20260830023106 70 0.0 0.0 0.00 0.00 0.00 81 1023.5
20260830022549 71 0.0 0.0 0.00 0.00 0.00 81 1023.3
20260830022100 71 0.0 0.0 0.00 0.00 0.00 81 1023.3
20260830021607 71 0.0 0.0 0.00 0.00 0.00 81 1023.5
20260830021048 71 0.0 0.0 0.00 0.00 0.00 81 1023.4
20260830020549 71 0.0 0.0 0.00 0.00 0.00 80 1023.5
20260830020105 71 0.0 0.0 0.00 0.00 0.00 80 1023.4
20260830015548 71 0.0 0.0 0.00 0.00 0.00 79 1023.4
20260830015055 72 0.0 0.0 0.00 0.00 0.00 79 1023.2
20260830014614 72 0.0 0.0 0.00 0.00 0.00 79 1023.1